Regional Weather Roundup
Issued by NWS Sterling, VA

Home | Current Version | Previous Version | Graphics & Text | Print | Product List | Glossary On
Versions: 1 2 3 4 5 6 7 8 9 10 11 12 13 14 15 16 17 18 19 20 21 22 23 24 25 26 27 28 29 30 31 32 33 34 35 36 37 38 39 40 41 42 43 44 45 46 47 48 49 50
000
ASUS41 KLWX 240411
RWRLWX

REGIONAL WEATHER ROUNDUP
NATIONAL WEATHER SERVICE BALTIMORE MD/WASHINGTON DC
1200 AM EDT THU MAY 24 2018

Note: "FAIR" indicates few or no clouds below 12,000 feet
with no significant weather and/or obstructions to visibility.
 TC=TEMPERATURE CELSIUS

 * =Non NWS site. Station does not report precipitation (e.g. rain,
    snow, etc.), thunder, or fog.

DCZ001-MDZ009-015-VAZ040>042-051-053>054-240500-
WASHINGTON METRO

CITY           SKY/WX    TMP DP  RH WIND       PRES   REMARKS
WASHINGTON NAT FAIR      69  57  65 N6        30.10R
DULLES         FAIR      62  58  86 CALM      30.11S
ANDREWS AFB    FAIR      64  57  77 CALM      30.09R
FT BELVOIR     FAIR      61  59  93 CALM      30.10R
QUANTICO       FAIR      67  60  78 NW8       30.11R
COLLEGE PARK*  FAIR      61  58  91 CALM      30.09S
LEESBURG*      FAIR      64  59  82 W5        30.12S
MANASSAS*      FAIR      58  57  97 CALM      30.11S
GAITHERSBURG*  FAIR      60  58  92 CALM      30.12S

$$

MDZ006>007-011-014-240500-
BALTIMORE METRO

CITY           SKY/WX    TMP DP  RH WIND       PRES   REMARKS
BWI AIRPORT    FAIR      63  58  83 W3        30.08S
MD SCIENCE CTR   N/A     72  57  59 MISG      30.07S
MARTIN STATE   FAIR      63  59  88 CALM      30.09R
ANNAPOLIS        N/A    N/A N/A N/A MISG      30.08R
FORT MEADE*    FAIR      59  55  88 CALM      30.12R

$$

MDZ012-015-019>023-240500-
MARYLAND EASTERN SHORE

CITY           SKY/WX    TMP DP  RH WIND       PRES   REMARKS
OCEAN CITY     FAIR      64  60  87 NW5       30.06R
SALISBURY      FAIR      65  62  90 CALM      30.07R
BAY BRIDGE AP* FAIR      66  63  88 W3        30.08R
CAMBRIDGE*       N/A     63  61  94 CALM      30.08R
EASTON*        FAIR      65  58  79 CALM      30.11S

$$

MDZ017>025-240500-
SOUTHERN MARYLAND

CITY           SKY/WX    TMP DP  RH WIND       PRES   REMARKS
PATUXENT RIVER FAIR      69  61  75 W3        30.08R
ST INIGOES     FAIR      64  62  93 CALM      30.08R
LEONARDTOWN*   FAIR      61  59  94 CALM      30.11R

$$

MDZ003>005-240500-
NORTH CENTRAL MARYLAND

CITY           SKY/WX    TMP DP  RH WIND       PRES   REMARKS
FREDERICK*     FAIR      61  61 100 CALM      30.13S
HAGERSTOWN APT FAIR      66  56  70 S3        30.12S
WESTMINSTER*   FAIR      64  59  82 CALM      30.11S

$$

MDZ501>502-240500-
WESTERN MARYLAND

CITY           SKY/WX    TMP DP  RH WIND       PRES   REMARKS
OAKLAND*       FAIR      54  52  94 W3        30.24R
CUMBERLAND*    FAIR      61  55  82 S3        30.20R

$$

VAZ025>031-240500-
SHENANDOAH VALLEY

CITY           SKY/WX    TMP DP  RH WIND       PRES   REMARKS
WINCHESTER*    FAIR      55  54  94 CALM      30.16R
FRONT ROYAL*   FAIR      59  57  94 CALM      30.13S
LURAY*         FAIR      61  55  82 CALM      30.16R
NEW MARKET*    FAIR      60  58  94 CALM      30.15R
STAUNTON*      FAIR      64  55  74 N5        30.19R
WAYNESBORO*    FAIR      65  57  76 N3        30.18R

$$

WVZ021-048>050-054>055-240500-
EASTERN WEST VIRGINIA PANHANDLE

CITY           SKY/WX    TMP DP  RH WIND       PRES   REMARKS
MARTINSBURG    FAIR      61  56  83 SW3       30.12S
PETERSBURG*    FAIR      58  55  90 CALM      30.18S

$$

VAZ036>039-050-240500-
CENTRAL FOOTHILLS

CITY           SKY/WX    TMP DP  RH WIND       PRES   REMARKS
CHARLOTTESVILL FAIR      69  59  70 CALM      30.13R
CULPEPER*      FAIR      60  56  88 CALM      30.13R
ORANGE*        FAIR      61  57  88 CALM      30.13R
GORDONSVILLE*  FAIR      63  61  94 CALM      30.13R
WARRENTON*     FAIR      57  54  88 CALM      30.11S

$$

VAZ055>057-240500-
NORTH AND CENTRAL PIEDMONT

CITY           SKY/WX    TMP DP  RH WIND       PRES   REMARKS
FREDERICKSBRG* FAIR      67  59  77 CALM      30.10R
STAFFORD*      FAIR      61  61 100 CALM      30.14R

$$

NCZ024-NYZ072-PAZ021-071-VAZ022-071-240500-
OTHER REGIONAL OBSERVATIONS

CITY           SKY/WX    TMP DP  RH WIND       PRES   REMARKS
NEW YORK CITY  FAIR      71  50  47 CALM      30.04R
PHILADELPHIA   FAIR      66  55  67 SW5       30.05R
PITTSBURGH     FAIR      61  53  75 CALM      30.18R
ROANOKE        FAIR      69  59  70 N5        30.15R
RICHMOND       FAIR      68  61  78 N7        30.10R
RALEIGH        MOCLDY    71  70  96 CALM      30.07R

$$

ANZ530>537-240500-
MARINE OBSERVATIONS

STATION/POSITION TIME  TEMP    WIND        PRES
                       AIR SEA DIR/SP/G
                 (UTC) (F)     (DEG/KT/KT) (MB)
THOMAS PT LIGHT  0400   70 68  290/  6/  7 1019.6R
BALT KEY BRIDGE  0336   71     280/  6/  6 1018.3F
COVE POINT       0336   71     340/  6/  8 1019.2R
LEWISETTA        0336   71 75  320/  3/  3 1018.7R
SOLOMONS ISLAND  0336   71 71  310/  2/  5 1018.5R
PINEY POINT      0336           40/  4/  4   N/A

$$




USA.gov is the U.S. government's official web portal to all federal, state and local government web resources and services.